CLX892 UBBB-ELLX

Flight info

Callsign CLX892
Flight time N/A
Altitude 32000
Route AGDAM M747 LUSAL N319 ADEKI N644 LAGAS DCT SARPI UM10 GOKPA UL746 ODERO DCT OPT/N0493F340 DCT IRLOX DCT EMPOS DCT EVRIK DCT BKS DCT BALUX DCT BEGLA DCT LAMSI DCT PETIX Z744 LEPSA/N0477F240 Z104 AGBUL T894 BITBU Z110 BETEX
Aircraft B744/H-SDE3FGHIM1M2RWXY/LB1

Departure

Time N/A
Airport Heydar Aliyev International Airport (UBBB)

Arrival

Time 2026-04-27 15:26
Airport Luxembourg-Findel International Airport (ELLX)
Time Latitude Longitude Altitude Speed Heading
2026-04-27 15:04 49.86120 8.32154 28517 ft 396 kts 288°
2026-04-27 15:04 49.87030 8.28194 27771 ft 389 kts 288°
2026-04-27 15:04 49.87914 8.24352 27043 ft 382 kts 288°
2026-04-27 15:04 49.88788 8.20548 26555 ft 378 kts 288°
2026-04-27 15:05 49.90033 8.15098 26366 ft 380 kts 288°
2026-04-27 15:05 49.91511 8.08629 26475 ft 383 kts 288°
2026-04-27 15:05 49.93084 8.01749 26593 ft 389 kts 288°
2026-04-27 15:05 49.94597 7.95115 26600 ft 388 kts 288°
2026-04-27 15:06 49.95417 7.91188 26561 ft 387 kts 285°
2026-04-27 15:06 49.96597 7.84897 26519 ft 383 kts 286°
2026-04-27 15:06 49.97900 7.78049 26531 ft 384 kts 285°
2026-04-27 15:06 49.99201 7.71247 26325 ft 392 kts 287°
2026-04-27 15:07 50.00825 7.63485 25510 ft 392 kts 287°
2026-04-27 15:07 50.01792 7.58778 24835 ft 383 kts 287°
2026-04-27 15:07 50.02587 7.54906 24296 ft 373 kts 287°
2026-04-27 15:07 50.03199 7.51918 23911 ft 364 kts 287°
2026-04-27 15:08 50.03550 7.50200 23712 ft 361 kts 287°
2026-04-27 15:08 50.04306 7.46488 23297 ft 362 kts 287°
2026-04-27 15:08 50.05063 7.42761 22928 ft 365 kts 287°
2026-04-27 15:08 50.05821 7.39014 22641 ft 365 kts 287°
2026-04-27 15:09 50.06618 7.35051 22183 ft 367 kts 287°
2026-04-27 15:09 50.07773 7.29043 21376 ft 364 kts 280°
2026-04-27 15:09 50.08019 7.25166 20954 ft 353 kts 272°
2026-04-27 15:09 50.08133 7.21463 20611 ft 347 kts 274°
2026-04-27 15:10 50.08301 7.17686 20341 ft 351 kts 274°
2026-04-27 15:10 50.08486 7.13287 20037 ft 356 kts 274°
2026-04-27 15:10 50.08797 7.05783 19490 ft 357 kts 274°
2026-04-27 15:10 50.09100 6.98366 18852 ft 352 kts 274°
2026-04-27 15:11 50.09394 6.91111 18264 ft 345 kts 274°
2026-04-27 15:11 50.09481 6.83882 17802 ft 345 kts 268°
2026-04-27 15:11 50.09255 6.76605 17151 ft 347 kts 263°
2026-04-27 15:11 50.07423 6.70083 16409 ft 347 kts 230°
2026-04-27 15:12 50.04146 6.65118 15684 ft 342 kts 226°
2026-04-27 15:12 50.00971 6.60266 14916 ft 339 kts 226°
2026-04-27 15:12 49.97591 6.55692 14342 ft 331 kts 211°
2026-04-27 15:12 49.93606 6.52466 14327 ft 332 kts 210°
2026-04-27 15:13 49.91346 6.50597 14401 ft 336 kts 210°
2026-04-27 15:13 49.89267 6.48880 14163 ft 345 kts 210°
2026-04-27 15:13 49.87176 6.47153 13689 ft 346 kts 210°
2026-04-27 15:13 49.85088 6.45363 13074 ft 343 kts 216°
2026-04-27 15:14 49.83338 6.42972 12450 ft 336 kts 233°
2026-04-27 15:14 49.82149 6.39918 11872 ft 327 kts 251°
2026-04-27 15:14 49.81646 6.36577 11345 ft 315 kts 270°
2026-04-27 15:14 49.81837 6.33362 10895 ft 303 kts 287°
2026-04-27 15:15 49.82481 6.30368 10617 ft 288 kts 291°
2026-04-27 15:15 49.83101 6.27499 10355 ft 275 kts 290°
2026-04-27 15:15 49.83672 6.24743 10049 ft 267 kts 290°
2026-04-27 15:15 49.84244 6.22018 9797 ft 270 kts 290°
2026-04-27 15:16 49.84824 6.19247 9537 ft 271 kts 290°
2026-04-27 15:16 49.85368 6.16484 9303 ft 272 kts 282°
2026-04-27 15:16 49.85317 6.13560 8960 ft 279 kts 255°
2026-04-27 15:16 49.84404 6.10917 8586 ft 280 kts 228°
2026-04-27 15:17 49.82860 6.09157 7993 ft 275 kts 202°
2026-04-27 15:17 49.81089 6.08185 7485 ft 267 kts 199°
2026-04-27 15:17 49.79420 6.07121 6962 ft 263 kts 211°
2026-04-27 15:17 49.77648 6.05412 6785 ft 256 kts 213°
2026-04-27 15:18 49.75809 6.03676 6837 ft 262 kts 212°
2026-04-27 15:18 49.73652 6.01688 6730 ft 269 kts 211°
2026-04-27 15:18 49.72033 6.00212 6580 ft 271 kts 211°
2026-04-27 15:18 49.70412 5.98731 6367 ft 272 kts 211°
2026-04-27 15:19 49.68795 5.97252 6141 ft 266 kts 211°
2026-04-27 15:19 49.67242 5.95834 5921 ft 254 kts 211°
2026-04-27 15:19 49.65768 5.94491 5760 ft 242 kts 211°
2026-04-27 15:19 49.64352 5.93199 5680 ft 231 kts 211°
2026-04-27 15:20 49.63007 5.91974 5503 ft 216 kts 210°
2026-04-27 15:20 49.61721 5.90958 5224 ft 203 kts 191°
2026-04-27 15:20 49.60372 5.91042 4936 ft 195 kts 152°
2026-04-27 15:20 49.59190 5.92065 4978 ft 197 kts 145°
2026-04-27 15:21 49.57992 5.93148 4896 ft 202 kts 148°
2026-04-27 15:21 49.56758 5.94158 4778 ft 200 kts 148°
2026-04-27 15:21 49.55538 5.95167 4649 ft 198 kts 148°
2026-04-27 15:21 49.54507 5.96519 4355 ft 194 kts 115°
2026-04-27 15:22 49.54223 5.98440 4105 ft 184 kts 78°
2026-04-27 15:22 49.54727 6.00176 3933 ft 179 kts 53°
2026-04-27 15:22 49.55425 6.01784 3757 ft 181 kts 59°
2026-04-27 15:22 49.56029 6.03459 3507 ft 178 kts 60°
2026-04-27 15:23 49.56628 6.05080 3241 ft 173 kts 59°
2026-04-27 15:23 49.57224 6.06644 3062 ft 162 kts 59°
2026-04-27 15:23 49.57795 6.08110 2862 ft 159 kts 58°
2026-04-27 15:23 49.58342 6.09564 2558 ft 155 kts 60°
2026-04-27 15:24 49.58855 6.10986 2314 ft 151 kts 59°
2026-04-27 15:24 49.59374 6.12386 2119 ft 151 kts 60°
2026-04-27 15:24 49.59890 6.13802 1918 ft 151 kts 59°
2026-04-27 15:24 49.60421 6.15194 1718 ft 151 kts 59°
2026-04-27 15:25 49.60934 6.16580 1523 ft 151 kts 59°
2026-04-27 15:25 49.61469 6.17998 1300 ft 152 kts 59°
2026-04-27 15:25 49.61979 6.19360 1180 ft 129 kts 59°
2026-04-27 15:25 49.62370 6.20405 1228 ft 93 kts 60°
2026-04-27 15:26 49.62575 6.20963 1233 ft 47 kts 57°
2026-04-27 15:26 49.62758 6.21198 1235 ft 24 kts 30°
2026-04-27 15:26 49.62876 6.21302 1235 ft 11 kts 29°
2026-04-27 15:26 49.62888 6.21313 1235 ft 0 kts 30°
2026-04-27 15:27 49.62899 6.21323 1236 ft 10 kts 30°
2026-04-27 15:27 49.62979 6.21396 1238 ft 13 kts 33°
2026-04-27 15:27 49.63037 6.21508 1234 ft 13 kts 64°
2026-04-27 15:27 49.63071 6.21619 1233 ft 10 kts 64°
2026-04-27 15:28 49.63100 6.21713 1231 ft 9 kts 65°
2026-04-27 15:28 49.63131 6.21817 1228 ft 12 kts 65°
2026-04-27 15:28 49.63170 6.21949 1225 ft 15 kts 65°
2026-04-27 15:28 49.63220 6.22113 1221 ft 18 kts 64°
2026-04-27 15:29 49.63284 6.22312 1214 ft 22 kts 63°
2026-04-27 15:29 49.63356 6.22530 1212 ft 22 kts 62°
2026-04-27 15:29 49.63428 6.22731 1212 ft 15 kts 60°
2026-04-27 15:29 49.63445 6.22777 1214 ft 1 kts 60°
2026-04-27 15:30 49.63453 6.22800 1216 ft 5 kts 58°
2026-04-27 15:30 49.63518 6.22850 1219 ft 13 kts 346°
2026-04-27 15:30 49.63578 6.22785 1219 ft 8 kts 278°
2026-04-27 15:30 49.63557 6.22719 1219 ft 6 kts 238°
2026-04-27 15:31 49.63545 6.22688 1219 ft 0 kts 239°